This is the latest recevied weather packets stored in our database for station/object PD2BVG. If no packets are shown the sender has not sent any weather packets the latest 10 day(s).
| Time | Temp. | Humidity | Pressure | Rain* | Wind** | Luminosity | Snow |
|---|---|---|---|---|---|---|---|
| 1788026216 | 18.89° C | 98% | 1005.2 hPa | 0.51 mm | - | 0 W/m² | - |
| 1788026156 | 18.89° C | 98% | 1005.3 hPa | 0.25 mm | - | 0 W/m² | - |
| 1788026097 | 18.89° C | 98% | 1005.2 hPa | 0.25 mm | - | 0 W/m² | - |
| 1788026035 | 18.89° C | 98% | 1005.1 hPa | 0.25 mm | - | 0 W/m² | - |
| 1788025979 | 18.89° C | 98% | 1005.2 hPa | 0.25 mm | - | 0 W/m² | - |
| 1788025919 | 18.89° C | 98% | 1005.2 hPa | 0.25 mm | - | 0 W/m² | - |
| 1788025859 | 18.89° C | 98% | 1005.2 hPa | 0.25 mm | - | 0 W/m² | - |
| 1788025797 | 18.89° C | 98% | 1005.2 hPa | 0.25 mm | - | 0 W/m² | - |
| 1788025736 | 18.89° C | 98% | 1005.2 hPa | 0.25 mm | - | 0 W/m² | - |
| 1788025677 | 18.89° C | 98% | 1005.2 hPa | 0.25 mm | - | 0 W/m² | - |
| 1788025616 | 18.89° C | 98% | 1005.2 hPa | 0.51 mm | - | 5 W/m² | - |
| 1788025556 | 18.89° C | 98% | 1005.2 hPa | 0.51 mm | - | 7 W/m² | - |
| 1788025496 | 18.89° C | 98% | 1005.3 hPa | 0.51 mm | - | 9 W/m² | - |
| 1788025435 | 18.89° C | 99% | 1005.4 hPa | 0.51 mm | - | 14 W/m² | - |
| 1788025375 | 18.89° C | 99% | 1005.4 hPa | 0.51 mm | - | 18 W/m² | - |
| 1788025318 | 18.89° C | 99% | 1005.3 hPa | 0.51 mm | - | 21 W/m² | - |
| 1788025256 | 18.89° C | 99% | 1005.3 hPa | 0.51 mm | - | 25 W/m² | - |
| 1788025196 | 18.89° C | 99% | 1005.3 hPa | 0.51 mm | - | 25 W/m² | - |
| 1788025136 | 18.89° C | 99% | 1005.3 hPa | 0.51 mm | - | 27 W/m² | - |
| 1788025076 | 18.89° C | 99% | 1005.4 hPa | 0.51 mm | - | 27 W/m² | - |
| 1788025016 | 18.89° C | 99% | 1005.4 hPa | 0.51 mm | - | 23 W/m² | - |
| 1788024957 | 18.89° C | 99% | 1005.4 hPa | 0.51 mm | - | 19 W/m² | - |
| 1788024896 | 18.89° C | 99% | 1005.6 hPa | 0.51 mm | - | 19 W/m² | - |
| 1788024836 | 18.89° C | 98% | 1005.5 hPa | 0.51 mm | - | 16 W/m² | - |
| 1788024776 | 18.89° C | 98% | 1005.5 hPa | 0.51 mm | - | 16 W/m² | - |
* Rain latest hour (hover to see other rain measurements)
** Current wind speed in m/s (hover to see current wind gust speed)